QZS-4 (QZSS/PRN 185)

Last updated on Sun May 05 2024 00:03:15 GMT+0000 (Coordinated Universal Time)

1 42965U 17062A 24125.53375948 -.00000325 00000+0 00000+0 0 9999 2 42965 40.5326 353.3416 0747429 270.7740 289.8866 1.00264957 24044

Satellite not in orbit

QZS-4 (QZSS/PRN 185)